カタログに戻る

STARLINK-4621

運用中通信SSO
NORAD 53676·PAYLOAD·🇺🇸 United States

打ち上げ Aug 31, 2022 から Vandenberg Space Force Base

Loading…

次のパス (今後24時間)

TLE

最新Source: CelesTrak SupGP

元期: Sep 14, 2026, 22:22 UTC

1 53676C 22105AE  26257.93243056  .00020058  00000+0  13931-2 0  2571
2 53676  97.2831 132.0579 0002448  87.7019  88.4103 15.05634671    19

AllMySatでSTARLINK-4621をリアルタイム追跡

Download on the App Store